Year,Month,Day,Hour,Minute,Value (Times are PST for temperature in C)
2009,06,01,00,00,9.10
2009,06,01,00,01,9.10
2009,06,01,00,02,9.10
2009,06,01,00,03,9.10
2009,06,01,00,04,9.10
2009,06,01,00,05,9.10
2009,06,01,00,06,9.10
2009,06,01,00,07,9.10
2009,06,01,00,08,9.10
2009,06,01,00,09,9.10
2009,06,01,00,10,9.10
2009,06,01,00,11,9.00
2009,06,01,00,12,9.00
2009,06,01,00,18,8.90
2009,06,01,00,19,8.90
2009,06,01,00,20,8.90
2009,06,01,00,21,8.90
2009,06,01,00,22,8.90
2009,06,01,00,23,8.90
2009,06,01,00,24,8.90
2009,06,01,00,25,8.90
2009,06,01,00,26,8.90
2009,06,01,00,27,8.90
2009,06,01,00,28,8.80
2009,06,01,00,29,8.80
2009,06,01,00,30,8.80
2009,06,01,00,31,8.80
2009,06,01,00,32,8.80
2009,06,01,00,33,8.80
2009,06,01,00,34,8.70
2009,06,01,00,35,8.70
2009,06,01,00,36,8.70
2009,06,01,00,37,8.70
2009,06,01,00,38,8.70
2009,06,01,00,39,8.70
2009,06,01,00,40,8.70
2009,06,01,00,41,8.70
2009,06,01,00,42,8.70
2009,06,01,00,43,8.70
2009,06,01,00,44,8.70
2009,06,01,00,45,8.70
2009,06,01,00,46,8.70
2009,06,01,00,47,8.70
2009,06,01,00,48,8.70
2009,06,01,00,49,8.70
2009,06,01,00,50,8.70
2009,06,01,00,51,8.70
2009,06,01,00,52,8.70
2009,06,01,00,53,8.70
2009,06,01,00,54,8.70
2009,06,01,00,55,8.70
2009,06,01,00,56,8.70
2009,06,01,00,57,8.70
2009,06,01,00,58,8.70
2009,06,01,00,59,8.70
2009,06,01,01,00,8.70
2009,06,01,01,01,8.70
2009,06,01,01,02,8.70
2009,06,01,01,03,8.70
2009,06,01,01,04,8.70
2009,06,01,01,05,8.70
2009,06,01,01,06,8.70
2009,06,01,01,07,8.70
2009,06,01,01,08,8.70
2009,06,01,01,09,8.70
2009,06,01,01,10,8.70
2009,06,01,01,11,8.60
2009,06,01,01,12,8.60
2009,06,01,01,13,8.60
2009,06,01,01,14,8.60
2009,06,01,01,15,8.60
2009,06,01,01,16,8.60
2009,06,01,01,17,8.60
2009,06,01,01,18,8.60
2009,06,01,01,19,8.60
2009,06,01,01,20,8.60
2009,06,01,01,21,8.60
2009,06,01,01,22,8.60
2009,06,01,01,23,8.60
2009,06,01,01,24,8.60
2009,06,01,01,25,8.60
2009,06,01,01,26,8.60
2009,06,01,01,27,8.60
2009,06,01,01,28,8.60
2009,06,01,01,29,8.60
2009,06,01,01,30,8.60
2009,06,01,01,31,8.60
2009,06,01,01,32,8.60
2009,06,01,01,33,8.60
2009,06,01,01,34,8.60
2009,06,01,01,35,8.60
2009,06,01,01,36,8.60
2009,06,01,01,37,8.60
2009,06,01,01,38,8.60
2009,06,01,01,39,8.60
2009,06,01,01,40,8.70
2009,06,01,01,41,8.70
2009,06,01,01,42,8.70
2009,06,01,01,43,8.80
2009,06,01,01,44,8.80
2009,06,01,01,45,8.80
2009,06,01,01,46,8.80
2009,06,01,01,47,8.80
2009,06,01,01,48,8.90
2009,06,01,01,49,8.90
2009,06,01,01,50,8.90
2009,06,01,01,51,9.00
2009,06,01,01,52,9.10
2009,06,01,01,53,9.10
2009,06,01,01,54,9.20
2009,06,01,01,55,9.20
2009,06,01,01,56,9.20
2009,06,01,01,57,9.20
2009,06,01,01,58,9.20
2009,06,01,01,59,9.20
2009,06,01,02,00,9.20
2009,06,01,02,01,9.20
2009,06,01,02,02,9.20
2009,06,01,02,03,9.20
2009,06,01,02,04,9.20
2009,06,01,02,05,9.20
2009,06,01,02,06,9.20
2009,06,01,02,07,9.30
2009,06,01,02,08,9.30
2009,06,01,02,09,9.30
2009,06,01,02,10,9.40
2009,06,01,02,11,9.50
2009,06,01,02,12,9.60
2009,06,01,02,13,9.70
2009,06,01,02,14,9.80
2009,06,01,02,15,9.90
2009,06,01,02,16,10.00
2009,06,01,02,17,10.10
2009,06,01,02,18,10.10
2009,06,01,02,19,10.20
2009,06,01,02,20,10.20
2009,06,01,02,21,10.20
2009,06,01,02,22,10.10
2009,06,01,02,23,10.20
2009,06,01,02,24,10.20
2009,06,01,02,25,10.10
2009,06,01,02,26,10.20
2009,06,01,02,27,10.20
2009,06,01,02,28,10.20
2009,06,01,02,29,10.20
2009,06,01,02,30,10.20
2009,06,01,02,31,10.20
2009,06,01,02,32,10.20
2009,06,01,02,33,10.20
2009,06,01,02,34,10.20
2009,06,01,02,35,10.20
2009,06,01,02,36,10.20
2009,06,01,02,37,10.20
2009,06,01,02,38,10.20
2009,06,01,02,39,10.20
2009,06,01,02,40,10.20
2009,06,01,02,41,10.20
2009,06,01,02,42,10.10
2009,06,01,02,43,10.20
2009,06,01,02,44,10.20
2009,06,01,02,45,10.10
2009,06,01,02,46,10.10
2009,06,01,02,47,10.10
2009,06,01,02,48,10.20
2009,06,01,02,49,10.20
2009,06,01,02,50,10.20
2009,06,01,02,51,10.20
2009,06,01,02,52,10.20
2009,06,01,02,53,10.20
2009,06,01,02,54,10.20
2009,06,01,02,55,10.20
2009,06,01,02,56,10.20
2009,06,01,02,57,10.20
2009,06,01,02,58,10.20
2009,06,01,02,59,10.20
2009,06,01,03,00,10.20
2009,06,01,03,01,10.20
2009,06,01,03,02,10.10
2009,06,01,03,03,10.10
2009,06,01,03,04,10.10
2009,06,01,03,05,10.00
2009,06,01,03,06,10.00
2009,06,01,03,07,9.90
2009,06,01,03,08,9.90
2009,06,01,03,09,9.90
2009,06,01,03,10,9.80
2009,06,01,03,11,9.80
2009,06,01,03,12,9.80
2009,06,01,03,13,9.80
2009,06,01,03,14,9.80
2009,06,01,03,15,9.80
2009,06,01,03,16,9.90
2009,06,01,03,17,9.90
2009,06,01,03,18,9.90
2009,06,01,03,19,9.90
2009,06,01,03,20,9.80
2009,06,01,03,21,9.80
2009,06,01,03,22,9.80
2009,06,01,03,23,9.80
2009,06,01,03,24,9.70
2009,06,01,03,25,9.70
2009,06,01,03,26,9.70
2009,06,01,03,27,9.70
2009,06,01,03,28,9.70
2009,06,01,03,29,9.70
2009,06,01,03,30,9.70
2009,06,01,03,31,9.70
2009,06,01,03,32,9.70
2009,06,01,03,33,9.60
2009,06,01,03,34,9.60
2009,06,01,03,35,9.60
2009,06,01,03,36,9.60
2009,06,01,03,37,9.60
2009,06,01,03,38,9.60
2009,06,01,03,39,9.60
2009,06,01,03,40,9.60
2009,06,01,03,41,9.60
2009,06,01,03,42,9.60
2009,06,01,03,43,9.70
2009,06,01,03,44,9.70
2009,06,01,03,45,9.70
2009,06,01,03,46,9.70
2009,06,01,03,47,9.70
2009,06,01,03,48,9.70
2009,06,01,03,49,9.80
2009,06,01,03,50,9.80
2009,06,01,03,51,9.80
2009,06,01,03,52,9.90
2009,06,01,03,53,9.90
2009,06,01,03,54,9.90
2009,06,01,03,55,9.90
2009,06,01,03,56,9.90
2009,06,01,03,57,9.90
2009,06,01,03,58,9.90
2009,06,01,03,59,9.90
2009,06,01,04,00,9.90
2009,06,01,04,01,9.90
2009,06,01,04,02,9.90
2009,06,01,04,03,9.90
2009,06,01,04,04,9.90
2009,06,01,04,05,9.90
2009,06,01,04,06,9.90
2009,06,01,04,07,9.90
2009,06,01,04,08,9.90
2009,06,01,04,09,9.90
2009,06,01,04,10,9.90
2009,06,01,04,11,9.90
2009,06,01,04,12,9.80
2009,06,01,04,13,9.80
2009,06,01,04,14,9.80
2009,06,01,04,15,9.80
2009,06,01,04,16,9.80
2009,06,01,04,17,9.80
2009,06,01,04,18,9.70
2009,06,01,04,19,9.70
2009,06,01,04,20,9.60
2009,06,01,04,21,9.60
2009,06,01,04,22,9.60
2009,06,01,04,23,9.60
2009,06,01,04,24,9.50
2009,06,01,04,25,9.50
2009,06,01,04,26,9.40
2009,06,01,04,27,9.40
2009,06,01,04,28,9.40
2009,06,01,04,29,9.40
2009,06,01,04,30,9.30
2009,06,01,04,31,9.30
2009,06,01,04,32,9.30
2009,06,01,04,33,9.30
2009,06,01,04,34,9.30
2009,06,01,04,35,9.30
2009,06,01,04,36,9.30
2009,06,01,04,37,9.30
2009,06,01,04,38,9.30
2009,06,01,04,39,9.30
2009,06,01,04,40,9.30
2009,06,01,04,41,9.30
2009,06,01,04,42,9.30
2009,06,01,04,43,9.30
2009,06,01,04,44,9.30
2009,06,01,04,45,9.30
2009,06,01,04,46,9.30
2009,06,01,04,47,9.30
2009,06,01,04,48,9.30
2009,06,01,04,49,9.30
2009,06,01,04,50,9.20
2009,06,01,04,51,9.20
2009,06,01,04,52,9.20
2009,06,01,04,53,9.20
2009,06,01,04,54,9.20
2009,06,01,04,55,9.20
2009,06,01,04,56,9.20
2009,06,01,04,57,9.10
2009,06,01,04,58,9.10
2009,06,01,04,59,9.10
2009,06,01,05,00,9.10
2009,06,01,05,01,9.10
2009,06,01,05,02,9.10
2009,06,01,05,03,9.10
2009,06,01,05,04,9.10
2009,06,01,05,05,9.10
2009,06,01,05,06,9.00
2009,06,01,05,07,9.00
2009,06,01,05,08,9.00
2009,06,01,05,09,9.00
2009,06,01,05,10,9.00
2009,06,01,05,11,9.00
2009,06,01,05,12,9.00
2009,06,01,05,13,9.00
2009,06,01,05,14,9.00
2009,06,01,05,15,9.00
2009,06,01,05,16,9.00
2009,06,01,05,17,9.00
2009,06,01,05,18,9.00
2009,06,01,05,19,9.00
2009,06,01,05,20,9.00
2009,06,01,05,21,9.00
2009,06,01,05,22,9.00
2009,06,01,05,23,9.00
2009,06,01,05,24,9.00
2009,06,01,05,25,9.00
2009,06,01,05,26,9.00
2009,06,01,05,27,9.00
2009,06,01,05,28,9.00
2009,06,01,05,29,9.00
2009,06,01,05,30,9.00
2009,06,01,05,31,9.10
2009,06,01,05,32,9.10
2009,06,01,05,33,9.10
2009,06,01,05,34,9.10
2009,06,01,05,35,9.10
2009,06,01,05,36,9.10
2009,06,01,05,37,9.10
2009,06,01,05,38,9.10
2009,06,01,05,39,9.10
2009,06,01,05,40,9.00
2009,06,01,05,41,9.00
2009,06,01,05,42,9.00
2009,06,01,05,43,9.00
2009,06,01,05,44,8.90
2009,06,01,05,45,8.90
2009,06,01,05,46,8.90
2009,06,01,05,47,8.90
2009,06,01,05,48,8.90
2009,06,01,05,49,8.90
2009,06,01,05,50,8.90
2009,06,01,05,51,8.90
2009,06,01,05,52,8.90
2009,06,01,05,53,9.00
2009,06,01,05,54,9.10
2009,06,01,05,55,9.10
2009,06,01,05,56,9.10
2009,06,01,05,57,9.10
2009,06,01,05,58,9.20
2009,06,01,05,59,9.30
2009,06,01,06,00,9.40
2009,06,01,06,01,9.40
2009,06,01,06,02,9.40
2009,06,01,06,03,9.40
2009,06,01,06,04,9.40
2009,06,01,06,05,9.50
2009,06,01,06,06,9.50
2009,06,01,06,07,9.50
2009,06,01,06,08,9.50
2009,06,01,06,09,9.50
2009,06,01,06,10,9.40
2009,06,01,06,11,9.40
2009,06,01,06,12,9.40
2009,06,01,06,13,9.40
2009,06,01,06,14,9.40
2009,06,01,06,15,9.40
2009,06,01,06,16,9.40
2009,06,01,06,17,9.40
2009,06,01,06,18,9.40
2009,06,01,06,19,9.40
2009,06,01,06,20,9.40
2009,06,01,06,21,9.30
2009,06,01,06,22,9.30
2009,06,01,06,23,9.30
2009,06,01,06,24,9.30
2009,06,01,06,25,9.30
2009,06,01,06,26,9.30
2009,06,01,06,27,9.30
2009,06,01,06,28,9.30
2009,06,01,06,29,9.30
2009,06,01,06,30,9.30
2009,06,01,06,31,9.30
2009,06,01,06,32,9.30
2009,06,01,06,33,9.40
2009,06,01,06,34,9.40
2009,06,01,06,35,9.50
2009,06,01,06,36,9.50
2009,06,01,06,37,9.60
2009,06,01,06,38,9.70
2009,06,01,06,39,9.80
2009,06,01,06,40,9.80
2009,06,01,06,41,9.90
2009,06,01,06,42,10.00
2009,06,01,06,43,10.00
2009,06,01,06,44,10.10
2009,06,01,06,45,10.10
2009,06,01,06,46,10.20
2009,06,01,06,47,10.20
2009,06,01,06,48,10.30
2009,06,01,06,49,10.30
2009,06,01,06,50,10.40
2009,06,01,06,51,10.40
2009,06,01,06,52,10.40
2009,06,01,06,53,10.50
2009,06,01,06,54,10.50
2009,06,01,06,55,10.50
2009,06,01,06,56,10.50
2009,06,01,06,57,10.50
2009,06,01,06,58,10.40
2009,06,01,06,59,10.40
2009,06,01,07,00,10.40
2009,06,01,07,01,10.40
2009,06,01,07,02,10.40
2009,06,01,07,03,10.50
2009,06,01,07,04,10.50
2009,06,01,07,05,10.60
2009,06,01,07,06,10.60
2009,06,01,07,07,10.70
2009,06,01,07,08,10.80
2009,06,01,07,09,10.90
2009,06,01,07,10,11.00
2009,06,01,07,11,11.10
2009,06,01,07,12,11.20
2009,06,01,07,13,11.40
2009,06,01,07,14,11.50
2009,06,01,07,15,11.60
2009,06,01,07,16,11.60
2009,06,01,07,17,11.70
2009,06,01,07,18,11.80
2009,06,01,07,19,11.80
2009,06,01,07,20,11.90
2009,06,01,07,21,12.00
2009,06,01,07,22,12.00
2009,06,01,07,23,12.10
2009,06,01,07,24,12.20
2009,06,01,07,25,12.20
2009,06,01,07,26,12.20
2009,06,01,07,27,12.30
2009,06,01,07,28,12.30
2009,06,01,07,29,12.30
2009,06,01,07,30,12.30
2009,06,01,07,31,12.30
2009,06,01,07,32,12.40
2009,06,01,07,33,12.40
2009,06,01,07,34,12.40
2009,06,01,07,35,12.50
2009,06,01,07,36,12.50
2009,06,01,07,37,12.60
2009,06,01,07,38,12.60
2009,06,01,07,39,12.70
2009,06,01,07,40,12.80
2009,06,01,07,41,12.90
2009,06,01,07,42,13.00
2009,06,01,07,43,13.10
2009,06,01,07,44,13.10
2009,06,01,07,45,13.20
2009,06,01,07,46,13.20
2009,06,01,07,47,13.20
2009,06,01,07,48,13.20
2009,06,01,07,49,13.20
2009,06,01,07,50,13.30
2009,06,01,07,51,13.30
2009,06,01,07,52,13.30
2009,06,01,07,53,13.30
2009,06,01,07,54,13.30
2009,06,01,07,55,13.30
2009,06,01,07,56,13.30
2009,06,01,07,57,13.40
2009,06,01,07,58,13.40
2009,06,01,07,59,13.40
2009,06,01,08,00,13.40
2009,06,01,08,01,13.50
2009,06,01,08,02,13.50
2009,06,01,08,03,13.60
2009,06,01,08,04,13.60
2009,06,01,08,05,13.60
2009,06,01,08,06,13.60
2009,06,01,08,07,13.60
2009,06,01,08,08,13.60
2009,06,01,08,09,13.70
2009,06,01,08,10,13.70
2009,06,01,08,11,13.70
2009,06,01,08,12,13.60
2009,06,01,08,13,13.50
2009,06,01,08,14,13.30
2009,06,01,08,15,13.20
2009,06,01,08,16,13.10
2009,06,01,08,17,13.00
2009,06,01,08,18,12.90
2009,06,01,08,19,12.90
2009,06,01,08,20,12.80
2009,06,01,08,21,12.70
2009,06,01,08,22,12.70
2009,06,01,08,23,12.60
2009,06,01,08,24,12.60
2009,06,01,08,25,12.60
2009,06,01,08,26,12.60
2009,06,01,08,27,12.60
2009,06,01,08,28,12.60
2009,06,01,08,29,12.60
2009,06,01,08,30,12.60
2009,06,01,08,31,12.60
2009,06,01,08,32,12.60
2009,06,01,08,33,12.60
2009,06,01,08,34,12.60
2009,06,01,08,35,12.70
2009,06,01,08,36,12.70
2009,06,01,08,37,12.70
2009,06,01,08,38,12.70
2009,06,01,08,39,12.70
2009,06,01,08,40,12.70
2009,06,01,08,41,12.70
2009,06,01,08,42,12.70
2009,06,01,08,43,12.70
2009,06,01,08,44,12.70
2009,06,01,08,45,12.70
2009,06,01,08,46,12.70
2009,06,01,08,47,12.70
2009,06,01,08,48,12.70
2009,06,01,08,49,12.60
2009,06,01,08,50,12.60
2009,06,01,08,51,12.60
2009,06,01,08,52,12.50
2009,06,01,08,53,12.50
2009,06,01,08,54,12.40
2009,06,01,08,55,12.40
2009,06,01,08,56,12.40
2009,06,01,08,57,12.40
2009,06,01,08,58,12.40
2009,06,01,08,59,12.40
2009,06,01,09,00,12.40
2009,06,01,09,01,12.50
2009,06,01,09,02,12.50
2009,06,01,09,03,12.50
2009,06,01,09,04,12.60
2009,06,01,09,05,12.60
2009,06,01,09,06,12.60
2009,06,01,09,07,12.60
2009,06,01,09,08,12.60
2009,06,01,09,09,12.50
2009,06,01,09,10,12.60
2009,06,01,09,11,12.50
2009,06,01,09,12,12.60
2009,06,01,09,13,12.60
2009,06,01,09,14,12.60
2009,06,01,09,15,12.60
2009,06,01,09,16,12.50
2009,06,01,09,17,12.50
2009,06,01,09,18,12.50
2009,06,01,09,19,12.50
2009,06,01,09,20,12.50
2009,06,01,09,21,12.40
2009,06,01,09,22,12.40
2009,06,01,09,23,12.40
2009,06,01,09,24,12.50
2009,06,01,09,25,12.50
2009,06,01,09,26,12.60
2009,06,01,09,27,12.60
2009,06,01,09,28,12.70
2009,06,01,09,29,12.80
2009,06,01,09,30,12.80
2009,06,01,09,31,12.80
2009,06,01,09,32,12.90
2009,06,01,09,33,12.90
2009,06,01,09,34,13.00
2009,06,01,09,35,13.00
2009,06,01,09,36,13.10
2009,06,01,09,37,13.20
2009,06,01,09,38,13.30
2009,06,01,09,39,13.30
2009,06,01,09,40,13.40
2009,06,01,09,41,13.50
2009,06,01,09,42,13.50
2009,06,01,09,43,13.60
2009,06,01,09,44,13.70
2009,06,01,09,45,13.70
2009,06,01,09,46,13.80
2009,06,01,09,47,13.90
2009,06,01,09,48,14.00
2009,06,01,09,49,14.00
2009,06,01,09,50,14.10
2009,06,01,09,51,14.10
2009,06,01,09,52,14.20
2009,06,01,09,53,14.20
2009,06,01,09,54,14.30
2009,06,01,09,55,14.30
2009,06,01,09,56,14.30
2009,06,01,09,57,14.30
2009,06,01,09,58,14.40
2009,06,01,09,59,14.50
2009,06,01,10,00,14.50
2009,06,01,10,01,14.60
2009,06,01,10,02,14.70
2009,06,01,10,03,14.80
2009,06,01,10,04,14.80
2009,06,01,10,05,15.00
2009,06,01,10,06,15.00
2009,06,01,10,07,15.00
2009,06,01,10,08,15.00
2009,06,01,10,09,15.00
2009,06,01,10,10,15.00
2009,06,01,10,11,15.00
2009,06,01,10,12,15.00
2009,06,01,10,13,15.00
2009,06,01,10,14,15.00
2009,06,01,10,15,15.00
2009,06,01,10,16,15.00
2009,06,01,10,17,15.00
2009,06,01,10,18,15.00
2009,06,01,10,19,15.00
2009,06,01,10,20,15.00
2009,06,01,10,21,14.90
2009,06,01,10,22,14.80
2009,06,01,10,23,14.80
2009,06,01,10,24,14.80
2009,06,01,10,25,14.90
2009,06,01,10,26,15.00
2009,06,01,10,27,15.00
2009,06,01,10,28,15.00
2009,06,01,10,29,15.10
2009,06,01,10,30,15.20
2009,06,01,10,31,15.30
2009,06,01,10,32,15.50
2009,06,01,10,33,15.60
2009,06,01,10,34,15.70
2009,06,01,10,35,15.80
2009,06,01,10,36,15.80
2009,06,01,10,37,15.80
2009,06,01,10,38,15.80
2009,06,01,10,39,15.90
2009,06,01,10,40,16.00
2009,06,01,10,41,16.00
2009,06,01,10,42,16.00
2009,06,01,10,43,16.10
2009,06,01,10,44,16.10
2009,06,01,10,45,16.10
2009,06,01,10,46,16.00
2009,06,01,10,47,15.90
2009,06,01,10,48,15.90
2009,06,01,10,49,15.80
2009,06,01,10,50,15.70
2009,06,01,10,51,15.70
2009,06,01,10,52,15.60
2009,06,01,10,53,15.60
2009,06,01,10,54,15.60
2009,06,01,10,55,15.50
2009,06,01,10,56,15.50
2009,06,01,10,57,15.50
2009,06,01,10,58,15.60
2009,06,01,10,59,15.60
2009,06,01,11,00,15.60
2009,06,01,11,01,15.50
2009,06,01,11,02,15.50
2009,06,01,11,03,15.50
2009,06,01,11,04,15.50
2009,06,01,11,05,15.60
2009,06,01,11,06,15.60
2009,06,01,11,07,15.60
2009,06,01,11,08,15.60
2009,06,01,11,09,15.70
2009,06,01,11,10,15.70
2009,06,01,11,11,15.60
2009,06,01,11,12,15.60
2009,06,01,11,13,15.50
2009,06,01,11,14,15.50
2009,06,01,11,15,15.50
2009,06,01,11,16,15.50
2009,06,01,11,17,15.50
2009,06,01,11,18,15.60
2009,06,01,11,19,15.60
2009,06,01,11,20,15.70
2009,06,01,11,21,15.70
2009,06,01,11,22,15.80
2009,06,01,11,23,15.90
2009,06,01,11,24,16.10
2009,06,01,11,25,16.20
2009,06,01,11,26,16.30
2009,06,01,11,27,16.30
2009,06,01,11,28,16.40
2009,06,01,11,29,16.50
2009,06,01,11,30,16.60
2009,06,01,11,31,16.70
2009,06,01,11,32,16.70
2009,06,01,11,33,16.90
2009,06,01,11,34,17.00
2009,06,01,11,35,17.20
2009,06,01,11,36,17.50
2009,06,01,11,37,17.70
2009,06,01,11,38,18.00
2009,06,01,11,39,18.20
2009,06,01,11,40,18.60
2009,06,01,11,41,18.80
2009,06,01,11,42,19.00
2009,06,01,11,43,19.20
2009,06,01,11,44,19.30
2009,06,01,11,45,19.30
2009,06,01,11,46,19.30
2009,06,01,11,47,19.30
2009,06,01,11,48,19.30
2009,06,01,11,49,19.30
2009,06,01,11,50,19.30
2009,06,01,11,51,19.30
2009,06,01,11,52,19.30
2009,06,01,11,53,19.20
2009,06,01,11,54,19.30
2009,06,01,11,55,19.30
2009,06,01,11,56,19.30
2009,06,01,11,57,19.30
2009,06,01,11,58,19.40
2009,06,01,11,59,19.50
2009,06,01,12,00,19.50
2009,06,01,12,01,19.50
2009,06,01,12,02,19.60
2009,06,01,12,03,19.70
2009,06,01,12,04,19.80
2009,06,01,12,05,19.80
2009,06,01,12,06,19.90
2009,06,01,12,07,19.90
2009,06,01,12,08,19.90
2009,06,01,12,09,19.80
2009,06,01,12,10,19.80
2009,06,01,12,11,19.80
2009,06,01,12,12,19.70
2009,06,01,12,13,19.70
2009,06,01,12,14,19.70
2009,06,01,12,15,19.70
2009,06,01,12,16,19.70
2009,06,01,12,17,19.70
2009,06,01,12,18,19.70
2009,06,01,12,19,19.70
2009,06,01,12,20,19.80
2009,06,01,12,21,19.80
2009,06,01,12,22,19.90
2009,06,01,12,23,19.90
2009,06,01,12,24,19.90
2009,06,01,12,25,20.00
2009,06,01,12,26,20.00
2009,06,01,12,27,20.10
2009,06,01,12,28,20.20
2009,06,01,12,29,20.20
2009,06,01,12,30,20.20
2009,06,01,12,31,20.30
2009,06,01,12,32,20.40
2009,06,01,12,33,20.50
2009,06,01,12,34,20.60
2009,06,01,12,35,20.70
2009,06,01,12,36,20.80
2009,06,01,12,37,20.80
2009,06,01,12,38,20.80
2009,06,01,12,39,20.90
2009,06,01,12,40,20.90
2009,06,01,12,41,21.00
2009,06,01,12,42,21.00
2009,06,01,12,43,21.00
2009,06,01,12,44,21.00
2009,06,01,12,45,21.10
2009,06,01,12,46,21.10
2009,06,01,12,47,21.10
2009,06,01,12,48,21.10
2009,06,01,12,49,21.10
2009,06,01,12,50,21.10
2009,06,01,12,51,21.10
2009,06,01,12,52,21.20
2009,06,01,12,53,21.20
2009,06,01,12,54,21.40
2009,06,01,12,55,21.50
2009,06,01,12,56,21.70
2009,06,01,12,57,21.80
2009,06,01,12,58,22.00
2009,06,01,12,59,22.20
2009,06,01,13,00,22.30
2009,06,01,13,01,22.40
2009,06,01,13,02,22.60
2009,06,01,13,03,22.70
2009,06,01,13,04,22.80
2009,06,01,13,05,22.80
2009,06,01,13,06,23.00
2009,06,01,13,07,23.10
2009,06,01,13,08,23.20
2009,06,01,13,09,23.40
2009,06,01,13,10,23.60
2009,06,01,13,11,23.70
2009,06,01,13,12,23.80
2009,06,01,13,13,24.00
2009,06,01,13,14,24.00
2009,06,01,13,15,24.00
2009,06,01,13,16,23.80
2009,06,01,13,17,23.60
2009,06,01,13,18,23.40
2009,06,01,13,19,23.20
2009,06,01,13,20,23.00
2009,06,01,13,21,22.80
2009,06,01,13,22,22.70
2009,06,01,13,23,22.50
2009,06,01,13,24,22.40
2009,06,01,13,25,22.20
2009,06,01,13,26,22.20
2009,06,01,13,27,22.10
2009,06,01,13,28,22.10
2009,06,01,13,29,22.00
2009,06,01,13,30,22.00
2009,06,01,13,31,21.90
2009,06,01,13,32,22.00
2009,06,01,13,33,22.10
2009,06,01,13,34,21.90
2009,06,01,13,35,21.50
2009,06,01,13,36,21.00
2009,06,01,13,37,20.60
2009,06,01,13,38,20.20
2009,06,01,13,39,19.80
2009,06,01,13,40,19.30
2009,06,01,13,41,18.90
2009,06,01,13,42,18.70
2009,06,01,13,43,18.40
2009,06,01,13,44,18.10
2009,06,01,13,45,18.00
2009,06,01,13,46,17.90
2009,06,01,13,47,17.80
2009,06,01,13,48,17.70
2009,06,01,13,49,17.80
2009,06,01,13,50,17.80
2009,06,01,13,51,17.90
2009,06,01,13,52,18.00
2009,06,01,13,53,18.20
2009,06,01,13,54,18.30
2009,06,01,13,55,18.50
2009,06,01,13,56,18.60
2009,06,01,13,57,18.80
2009,06,01,13,58,19.00
2009,06,01,13,59,19.10
2009,06,01,14,00,19.20
2009,06,01,14,01,19.30
2009,06,01,14,02,19.50
2009,06,01,14,03,19.60
2009,06,01,14,04,19.60
2009,06,01,14,05,19.70
2009,06,01,14,06,19.70
2009,06,01,14,07,19.80
2009,06,01,14,08,19.90
2009,06,01,14,09,20.00
2009,06,01,14,10,20.10
2009,06,01,14,11,20.30
2009,06,01,14,12,20.30
2009,06,01,14,13,20.40
2009,06,01,14,14,20.50
2009,06,01,14,15,20.50
2009,06,01,14,16,20.60
2009,06,01,14,17,20.60
2009,06,01,14,18,20.70
2009,06,01,14,19,20.70
2009,06,01,14,20,20.80
2009,06,01,14,21,20.80
2009,06,01,14,22,20.80
2009,06,01,14,23,20.90
2009,06,01,14,24,20.90
2009,06,01,14,25,20.90
2009,06,01,14,26,20.90
2009,06,01,14,27,20.80
2009,06,01,14,28,20.60
2009,06,01,14,29,20.50
2009,06,01,14,30,20.40
2009,06,01,14,31,20.30
2009,06,01,14,32,20.20
2009,06,01,14,33,20.10
2009,06,01,14,34,20.20
2009,06,01,14,35,20.20
2009,06,01,14,36,20.30
2009,06,01,14,37,20.40
2009,06,01,14,38,20.50
2009,06,01,14,39,20.70
2009,06,01,14,40,20.90
2009,06,01,14,41,21.00
2009,06,01,14,42,21.10
2009,06,01,14,43,21.30
2009,06,01,14,44,21.30
2009,06,01,14,45,21.40
2009,06,01,14,46,21.50
2009,06,01,14,47,21.60
2009,06,01,14,48,21.60
2009,06,01,14,49,21.70
2009,06,01,14,50,21.70
2009,06,01,14,51,21.70
2009,06,01,14,52,21.70
2009,06,01,14,53,21.70
2009,06,01,14,54,21.70
2009,06,01,14,55,21.70
2009,06,01,14,56,21.70
2009,06,01,14,57,21.80
2009,06,01,14,58,21.80
2009,06,01,14,59,21.80
2009,06,01,15,00,21.80
2009,06,01,15,01,21.80
2009,06,01,15,02,21.90
2009,06,01,15,03,22.00
2009,06,01,15,04,22.00
2009,06,01,15,05,22.10
2009,06,01,15,06,22.20
2009,06,01,15,07,22.30
2009,06,01,15,08,22.40
2009,06,01,15,09,22.40
2009,06,01,15,10,22.50
2009,06,01,15,11,22.60
2009,06,01,15,12,22.70
2009,06,01,15,13,22.70
2009,06,01,15,14,22.60
2009,06,01,15,15,22.60
2009,06,01,15,16,22.60
2009,06,01,15,17,22.50
2009,06,01,15,18,22.40
2009,06,01,15,19,22.40
2009,06,01,15,20,22.30
2009,06,01,15,21,22.20
2009,06,01,15,22,22.10
2009,06,01,15,23,21.90
2009,06,01,15,24,21.70
2009,06,01,15,25,21.40
2009,06,01,15,26,21.20
2009,06,01,15,27,21.00
2009,06,01,15,28,20.70
2009,06,01,15,29,20.40
2009,06,01,15,30,20.10
2009,06,01,15,31,20.00
2009,06,01,15,32,19.90
2009,06,01,15,33,19.80
2009,06,01,15,34,19.70
2009,06,01,15,35,19.70
2009,06,01,15,36,19.60
2009,06,01,15,37,19.60
2009,06,01,15,38,19.50
2009,06,01,15,39,19.40
2009,06,01,15,40,19.40
2009,06,01,15,41,19.40
2009,06,01,15,42,19.30
2009,06,01,15,43,19.30
2009,06,01,15,44,19.30
2009,06,01,15,45,19.30
2009,06,01,15,46,19.40
2009,06,01,15,47,19.40
2009,06,01,15,48,19.40
2009,06,01,15,49,19.40
2009,06,01,15,50,19.40
2009,06,01,15,51,19.40
2009,06,01,15,52,19.40
2009,06,01,15,53,19.30
2009,06,01,15,54,19.30
2009,06,01,15,55,19.30
2009,06,01,15,56,19.30
2009,06,01,15,57,19.40
2009,06,01,15,58,19.40
2009,06,01,15,59,19.40
2009,06,01,16,00,19.40
2009,06,01,16,01,19.50
2009,06,01,16,02,19.50
2009,06,01,16,03,19.60
2009,06,01,16,04,19.70
2009,06,01,16,05,19.70
2009,06,01,16,06,19.80
2009,06,01,16,07,19.90
2009,06,01,16,08,20.00
2009,06,01,16,09,20.00
2009,06,01,16,10,20.10
2009,06,01,16,11,20.20
2009,06,01,16,12,20.30
2009,06,01,16,13,20.50
2009,06,01,16,14,20.60
2009,06,01,16,15,20.70
2009,06,01,16,16,20.90
2009,06,01,16,17,21.00
2009,06,01,16,18,21.10
2009,06,01,16,19,21.30
2009,06,01,16,20,21.40
2009,06,01,16,21,21.50
2009,06,01,16,22,21.60
2009,06,01,16,23,21.80
2009,06,01,16,24,21.80
2009,06,01,16,25,21.90
2009,06,01,16,26,22.10
2009,06,01,16,27,22.10
2009,06,01,16,28,22.20
2009,06,01,16,29,22.20
2009,06,01,16,30,22.20
2009,06,01,16,31,22.30
2009,06,01,16,32,22.30
2009,06,01,16,33,22.30
2009,06,01,16,34,22.20
2009,06,01,16,35,22.00
2009,06,01,16,36,21.80
2009,06,01,16,37,21.70
2009,06,01,16,38,21.50
2009,06,01,16,39,21.40
2009,06,01,16,40,21.30
2009,06,01,16,41,21.20
2009,06,01,16,42,21.20
2009,06,01,16,43,21.10
2009,06,01,16,44,21.10
2009,06,01,16,45,21.10
2009,06,01,16,46,21.10
2009,06,01,16,47,21.10
2009,06,01,16,48,21.10
2009,06,01,16,49,21.20
2009,06,01,16,50,21.20
2009,06,01,16,51,21.20
2009,06,01,16,52,21.10
2009,06,01,16,53,21.00
2009,06,01,16,54,21.00
2009,06,01,16,55,21.00
2009,06,01,16,56,21.00
2009,06,01,16,57,21.00
2009,06,01,16,58,20.90
2009,06,01,16,59,20.90
2009,06,01,17,00,20.90
2009,06,01,17,01,20.90
2009,06,01,17,02,20.80
2009,06,01,17,03,20.80
2009,06,01,17,04,20.70
2009,06,01,17,05,20.60
2009,06,01,17,06,20.60
2009,06,01,17,07,20.50
2009,06,01,17,08,20.40
2009,06,01,17,09,20.40
2009,06,01,17,10,20.40
2009,06,01,17,11,20.40
2009,06,01,17,12,20.40
2009,06,01,17,13,20.50
2009,06,01,17,14,20.50
2009,06,01,17,15,20.50
2009,06,01,17,16,20.50
2009,06,01,17,17,20.60
2009,06,01,17,18,20.60
2009,06,01,17,19,20.60
2009,06,01,17,20,20.50
2009,06,01,17,21,20.40
2009,06,01,17,22,20.30
2009,06,01,17,23,20.20
2009,06,01,17,24,20.10
2009,06,01,17,25,20.00
2009,06,01,17,26,19.70
2009,06,01,17,27,19.40
2009,06,01,17,28,19.10
2009,06,01,17,29,18.80
2009,06,01,17,30,18.50
2009,06,01,17,31,18.20
2009,06,01,17,32,17.80
2009,06,01,17,33,17.70
2009,06,01,17,34,17.60
2009,06,01,17,35,17.60
2009,06,01,17,36,17.50
2009,06,01,17,37,17.50
2009,06,01,17,38,17.40
2009,06,01,17,39,17.40